Weather History for KMVY - May, 2013

Change the Weather History Date:

Thursday, May 23, 2013

  Actual Average Record
Temperature  
Mean Temperature 64 °F -  
Max Temperature 69 °F 66 °F 83 °F (1992)
Min Temperature 59 °F 49 °F 35 °F (2005)
Degree Days  
Heating Degree Days 2    
Growing Degree Days 14 (Base 50)    
Moisture  
Dew Point 61 °F    
Average Humidity 93    
Maximum Humidity 100    
Minimum Humidity 78    
Precipitation  
Precipitation 0.30 in - - ()
Sea Level Pressure  
Sea Level Pressure 29.95 in    
Wind  
Wind Speed 14 mph (SSW)    
Max Wind Speed 23 mph    
Max Gust Speed 32 mph    
Visibility 4 miles    
Events Fog , Rain    
Averages and records for this station are not official NWS values.
T = Trace of Precipitation, MM = Missing Value Source: NWS Daily Summary

Daily Weather History Graph

Daily Weather History Graph

Search for Another Location

Airport or City:

Trip Planner

Search our weather history database for the weather conditions in past years. The results will help you decide how hot, cold, wet, or windy it might be!

Date:

Astronomy

May. 23, 2013 Rise Set
Actual Time 5:16 AM EDT 8:02 PM EDT
Civil Twilight 4:44 AM EDT 8:34 PM EDT
Nautical Twilight 4:03 AM EDT 9:15 PM EDT
Astronomical Twilight 3:17 AM EDT 10:02 PM EDT
Moon 6:30 PM EDT (5/23) 4:00 AM EDT (5/23)
Length of Visible Light 15h 50m
Length of Day
14h 45m
Waxing Gibbous, 97% of the Moon is Illuminated
May 23
Waxing Gibbous
May 25
Full
May 31
Last Quarter
Jun 8
New
Jun 16
First Quarter

Hourly Weather History & Observations

Time (EDT) Temp. Dew Point Humidity Pressure Visibility Wind Dir Wind Speed Gust Speed Precip Events Conditions
12:53 AM 59.0 °F 59.0 °F 100% 29.96 in 0.5 mi SSW 11.5 mph - N/A Fog Fog
1:53 AM 60.1 °F 60.1 °F 100% 29.95 in 0.5 mi SW 11.5 mph - N/A Fog Fog
2:17 AM 60.8 °F 60.8 °F 100% 29.95 in 0.5 mi SW 12.7 mph - N/A Fog Fog
2:53 AM 61.0 °F 60.1 °F 97% 29.94 in 0.5 mi SW 12.7 mph 19.6 mph N/A Fog Fog
3:53 AM 61.0 °F 60.1 °F 97% 29.93 in 0.5 mi SSW 13.8 mph 23.0 mph N/A Fog Fog
4:10 AM 60.8 °F 60.8 °F 100% 29.93 in 0.5 mi SSW 16.1 mph 24.2 mph N/A Fog Fog
4:13 AM 60.8 °F 60.8 °F 100% 29.93 in 0.2 mi SSW 17.3 mph - N/A Fog Fog
4:23 AM 60.8 °F 60.8 °F 100% 29.93 in 0.5 mi SSW 15.0 mph 24.2 mph N/A Fog Fog
4:30 AM 60.8 °F 60.8 °F 100% 29.93 in 0.5 mi SSW 12.7 mph 24.2 mph N/A Fog Fog
4:53 AM 60.1 °F 60.1 °F 100% 29.94 in 0.5 mi SW 13.8 mph 19.6 mph N/A Fog Fog
5:53 AM 61.0 °F 60.1 °F 97% 29.95 in 0.5 mi SW 15.0 mph - N/A Fog Fog
6:19 AM 60.8 °F 60.8 °F 100% 29.96 in 1.2 mi SW 15.0 mph 20.7 mph N/A   Overcast
6:35 AM 60.8 °F 60.8 °F 100% 29.96 in 2.0 mi SW 12.7 mph 19.6 mph N/A   Overcast
6:53 AM 61.0 °F 60.1 °F 97% 29.96 in 3.0 mi SW 11.5 mph 20.7 mph N/A   Overcast
7:39 AM 60.8 °F 60.8 °F 100% 29.96 in 2.5 mi SW 11.5 mph 20.7 mph N/A   Overcast
7:53 AM 61.0 °F 60.1 °F 97% 29.96 in 2.0 mi SSW 15.0 mph 21.9 mph N/A   Overcast
8:29 AM 62.6 °F 60.8 °F 94% 29.97 in 3.0 mi SW 12.7 mph 25.3 mph N/A   Overcast
8:53 AM 62.1 °F 61.0 °F 96% 29.97 in 3.0 mi SW 13.8 mph 23.0 mph N/A   Overcast
9:53 AM 64.0 °F 61.0 °F 90% 29.97 in 6.0 mi SW 16.1 mph 24.2 mph N/A   Overcast
10:53 AM 64.0 °F 60.1 °F 87% 29.98 in 7.0 mi SSW 18.4 mph 32.2 mph N/A   Overcast
11:11 AM 64.4 °F 60.8 °F 88% 29.98 in 8.0 mi SW 17.3 mph 25.3 mph N/A   Overcast
11:53 AM 66.9 °F 61.0 °F 81% 29.99 in 9.0 mi SW 15.0 mph 29.9 mph N/A   Overcast
12:53 PM 66.9 °F 61.0 °F 81% 29.98 in 8.0 mi SW 21.9 mph 29.9 mph N/A   Overcast
1:53 PM 66.9 °F 61.0 °F 81% 29.96 in 8.0 mi SW 13.8 mph 24.2 mph N/A   Overcast
2:53 PM 66.9 °F 62.1 °F 84% 29.97 in 9.0 mi SSW 23.0 mph 32.2 mph N/A   Overcast
3:53 PM 66.0 °F 61.0 °F 84% 29.96 in 9.0 mi SSW 18.4 mph 24.2 mph N/A   Overcast
4:31 PM 68.0 °F 60.8 °F 78% 29.94 in 10.0 mi SSW 18.4 mph 32.2 mph N/A   Overcast
4:53 PM 66.0 °F 61.0 °F 84% 29.95 in 10.0 mi SSW 17.3 mph 27.6 mph N/A   Overcast
5:53 PM 64.9 °F 61.0 °F 87% 29.94 in 9.0 mi SSW 19.6 mph 26.5 mph N/A   Overcast
6:50 PM 64.4 °F 60.8 °F 88% 29.95 in 8.0 mi SSW 18.4 mph 26.5 mph N/A   Overcast
6:53 PM 64.0 °F 61.0 °F 90% 29.95 in 8.0 mi SSW 15.0 mph 25.3 mph N/A   Overcast
7:11 PM 64.4 °F 60.8 °F 88% 29.94 in 8.0 mi SSW 15.0 mph - N/A   Overcast
7:23 PM 62.6 °F 60.8 °F 94% 29.95 in 7.0 mi SSW 15.0 mph 24.2 mph N/A   Overcast
7:32 PM 62.6 °F 60.8 °F 94% 29.95 in 7.0 mi SSW 16.1 mph 26.5 mph N/A   Overcast
7:53 PM 63.0 °F 61.0 °F 93% 29.95 in 7.0 mi SSW 15.0 mph 23.0 mph N/A   Overcast
8:53 PM 62.1 °F 61.0 °F 96% 29.94 in 6.0 mi South 15.0 mph - 0.01 in Rain Light Rain
9:00 PM 62.6 °F 60.8 °F 94% 29.94 in 6.0 mi South 15.0 mph - 0.00 in   Overcast
9:53 PM 63.0 °F 62.1 °F 97% 29.93 in 6.0 mi South 16.1 mph 23.0 mph 0.01 in Rain Light Rain
10:53 PM 62.1 °F 61.0 °F 96% 29.91 in 4.0 mi South 15.0 mph - 0.03 in Rain Rain
11:06 PM 62.6 °F 62.6 °F 100% 29.90 in 2.5 mi South 15.0 mph - 0.12 in Rain Heavy Rain
11:15 PM 62.6 °F 62.6 °F 100% 29.90 in 5.0 mi South 16.1 mph 24.2 mph 0.14 in Rain Light Rain
11:51 PM 62.6 °F 60.8 °F 94% 29.89 in 2.5 mi South 18.4 mph 27.6 mph 0.25 in Rain Rain
11:53 PM 62.1 °F 61.0 °F 96% 29.89 in 2.5 mi South 16.1 mph 27.6 mph 0.25 in Rain Rain